Wind_Speed
14 13 11 10 9 9 10 10 9 9 9 9 8 7 6 6 6 7 8 8 8 8 8 7 8 9 9 10 11 11 11 11 11 10 10 11 12 12 14 12 11 10 9 9 11 12 12 14 12 11 11 11 11 11 11 10 9 7 7 6 6 6 5
13 11 11 11 10 11 11 10 9 8 8 7 6 5 5 7 8 8 8 9 9 8 7 7 7 8 8 9 10 11 12 12 12 11 11 11 11 11 13 13 12 10 9 9 10 10 12 15 16 17 16 14 13 13 12 11 11 9 9 8 6 5 5
14 12 11 11 11 10 11 10 9 7 6 5 4 3 4 6 9 9 8 9 9 8 7 7 6 6 7 7 8 9 11 12 13 12 12 12 11 10 12 13 13 12 10 11 12 11 11 13 17 20 18 16 16 15 13 11 10 10 8 7 5 4 3
14 13 13 13 12 11 10 9 7 6 5 3 2 1 2 4 7 8 9 8 8 8 8 8 8 6 6 7 7 8 10 12 12 12 13 13 12 12 12 13 13 12 10 11 12 12 12 13 18 22 19 16 17 16 14 11 9 8 8 8 7 5 4
14 13 14 14 13 11 9 8 7 6 5 4 3 2 1 2 3 5 8 8 7 7 6 8 10 8 7 7 7 7 8 9 10 11 11 12 12 12 12 13 12 11 10 9 10 11 11 12 16 22 21 17 17 16 14 11 9 7 7 7 8 7 7
13 12 13 14 12 10 9 8 7 5 4 4 4 3 3 2 1 2 5 7 7 5 3 6 10 9 8 8 8 8 8 8 8 9 9 11 11 10 10 12 12 11 10 9 10 11 11 13 18 22 21 17 16 16 14 11 9 7 5 6 7 7 8
13 12 13 13 11 10 9 8 6 4 3 4 5 5 4 4 2 2 4 6 6 4 2 5 9 10 9 8 8 8 8 8 8 9 10 10 11 10 11 12 12 11 10 9 10 11 11 15 20 22 22 18 15 15 14 12 9 6 6 6 6 6 7
12 12 13 12 11 10 9 8 5 3 3 3 3 5 5 5 5 4 4 6 6 6 5 6 9 10 10 9 8 8 8 10 10 10 10 10 10 11 12 13 12 12 11 9 10 11 11 14 18 19 19 18 18 17 14 13 10 6 5 6 6 6 6
13 13 13 12 12 11 9 7 5 4 4 2 1 3 5 6 7 6 6 7 7 7 7 7 9 11 12 10 8 8 8 10 10 10 10 10 10 11 12 13 13 13 12 10 11 12 12 15 16 16 14 13 15 19 18 14 10 7 6 6 6 6 6
12 11 12 13 13 12 9 7 5 5 4 2 2 3 4 6 7 8 8 8 8 9 8 7 7 10 12 11 10 9 9 9 11 11 11 11 11 12 13 14 14 14 13 13 14 13 14 17 15 13 12 7 6 14 19 16 12 9 8 7 6 6 5
11 11 13 15 15 13 10 7 5 4 3 3 4 4 4 4 7 10 10 9 9 10 9 6 6 9 12 11 11 11 10 10 12 13 12 12 13 14 14 14 14 14 14 14 15 14 15 18 15 12 11 7 4 6 11 13 12 10 8 8 7 5 4
12 12 14 16 16 13 9 6 4 4 4 4 5 6 6 5 6 10 11 10 10 11 11 7 6 9 11 11 11 12 11 12 13 14 13 12 12 13 14 14 15 16 16 16 15 16 17 18 16 13 11 9 7 4 3 6 9 9 9 8 6 5 5
13 12 15 16 15 11 7 5 4 3 5 5 6 7 7 5 5 9 9 9 9 10 11 9 7 8 9 10 11 11 11 11 12 13 13 11 10 10 11 14 16 17 18 18 17 17 17 18 16 14 12 10 10 9 6 3 3 4 8 9 6 5 6
13 13 15 15 12 10 7 5 5 4 5 6 6 5 4 5 7 8 8 8 9 10 10 10 9 8 8 9 11 12 11 9 10 11 11 10 9 9 10 14 17 17 17 18 17 16 15 16 16 14 14 14 13 12 12 8 3 3 7 9 8 7 6
15 13 15 14 11 10 8 6 5 5 5 6 5 4 6 7 8 8 8 8 9 10 11 11 11 9 8 10 12 13 13 11 10 10 10 9 9 9 10 14 16 16 16 15 14 14 13 13 14 14 15 15 15 14 15 13 9 6 6 8 10 9 8
16 15 14 13 11 10 9 7 5 5 6 6 5 7 8 8 8 8 8 8 8 9 10 12 12 11 9 10 13 14 14 13 12 12 11 11 10 10 10 12 14 14 13 13 12 12 12 11 11 12 13 14 14 15 16 16 14 10 9 9 10 10 9
17 17 15 15 12 10 8 6 5 5 5 4 6 8 8 8 8 8 9 9 8 8 8 9 10 10 9 11 13 14 15 15 14 13 13 13 13 12 11 11 12 12 12 12 13 12 12 12 11 10 11 12 13 16 18 19 17 14 11 11 11 9 8
19 19 18 18 14 10 8 5 3 4 4 5 7 7 7 7 7 7 8 9 9 8 8 8 9 10 10 11 13 14 15 15 14 13 13 14 15 15 14 13 12 12 12 12 12 12 11 11 11 10 10 11 13 17 21 21 19 15 12 11 11 10 9
22 22 22 21 17 13 9 5 2 3 4 6 7 6 6 6 5 3 4 7 9 9 9 9 9 10 11 12 13 15 15 14 13 12 12 13 16 17 17 16 14 13 13 12 12 12 10 10 9 8 7 8 12 17 21 21 19 16 14 11 10 11 11
25 24 22 20 18 13 8 5 3 3 5 7 7 5 4 4 4 3 2 2 6 9 9 10 11 11 11 11 12 14 15 14 13 14 14 13 14 16 17 18 17 16 14 13 12 11 11 9 8 7 6 7 10 14 18 20 18 16 15 13 12 12 12
26 24 21 16 16 14 10 7 5 5 6 7 7 5 3 3 3 3 2 1 3 5 7 9 12 13 12 11 13 14 15 14 14 16 15 14 14 15 16 17 16 15 14 13 13 12 11 10 9 9 9 9 11 13 16 17 16 15 15 14 14 13 13
23 24 23 18 17 17 13 10 8 8 8 9 8 7 6 5 5 5 4 3 2 3 3 6 11 13 12 12 13 14 15 15 15 16 16 15 15 16 16 16 15 14 13 12 12 12 11 11 11 11 12 12 13 14 15 15 15 15 15 15 15 15 16
22 23 22 20 19 17 14 13 11 10 10 10 9 9 8 7 7 7 6 6 5 4 3 3 6 10 11 12 13 14 15 15 16 16 17 17 18 17 17 17 16 15 14 13 13 13 14 14 15 15 15 15 16 17 17 17 17 17 17 16 16 17 18
18 19 18 18 18 17 15 14 12 12 12 11 10 11 10 9 9 9 9 8 8 7 6 4 4 6 8 9 11 13 15 16 16 17 17 18 19 19 19 18 17 17 16 15 15 16 16 17 18 19 19 18 17 18 18 18 18 18 18 19 19 19 20
14 14 16 16 16 15 15 14 13 12 12 11 11 12 11 11 11 11 11 11 11 10 9 8 8 8 8 8 9 11 13 15 16 18 19 19 19 19 19 19 19 18 18 17 17 17 17 18 18 20 21 20 19 19 19 19 19 19 20 21 21 22 22
14 14 15 15 15 14 14 14 13 12 11 10 10 11 13 14 13 13 13 13 13 12 11 11 11 12 13 13 12 11 12 13 14 16 18 19 20 20 20 19 19 19 19 19 18 18 18 18 17 18 20 21 22 21 20 20 20 21 21 22 23 23 24
12 13 13 13 13 14 14 13 13 13 13 13 12 12 13 15 15 15 15 14 14 14 13 13 13 13 14 16 17 16 15 15 15 15 16 18 19 20 20 19 19 20 20 20 20 19 19 19 19 19 20 21 22 23 23 23 23 23 23 24 25 25 25
12 11 10 10 11 12 12 12 12 14 16 17 17 17 16 16 17 17 17 17 17 16 15 16 16 15 15 16 18 20 21 20 19 19 19 20 20 20 21 21 21 21 21 22 22 22 22 22 22 22 22 22 23 25 26 27 26 26 26 26 26 26 26
13 12 10 9 10 10 10 10 11 13 15 15 17 18 19 18 18 17 17 18 19 19 18 17 17 17 17 17 18 20 22 24 24 24 24 24 24 24 24 24 25 25 25 25 25 25 26 26 26 26 26 26 27 28 28 29 30 30 29 28 27 28 28
12 12 10 9 9 9 10 10 10 12 13 13 12 14 16 17 17 17 17 19 21 22 21 20 19 19 18 18 18 19 22 24 24 25 26 26 26 27 27 27 27 27 27 27 28 29 29 31 31 30 29 29 30 30 31 32 32 31 30 27 27 29 28
6 7 6 6 6 6 7 7 8 9 10 10 10 11 12 13 13 15 16 18 21 23 24 25 24 23 22 21 20 20 22 24 25 26 26 27 28 29 29 28 28 28 29 30 32 31 32 36 37 35 33 34 35 35 35 35 35 34 31 29 29 30 28
0 1 2 3 4 4 5 6 8 9 10 10 11 11 12 12 13 13 14 16 18 21 24 25 26 28 28 27 26 25 24 24 25 27 29 30 31 31 28 26 27 29 30 32 32 32 33 38 41 38 33 33 35 36 36 37 38 37 34 33 32 31 29
6 7 7 8 9 9 10 11 11 12 12 13 14 14 15 15 15 15 16 16 17 19 21 23 24 26 28 29 30 29 28 26 25 25 27 29 31 31 27 25 25 27 28 29 29 30 32 35 39 39 34 32 34 36 36 37 39 37 33 32 31 30 28
10 11 12 13 13 14 15 16 17 18 18 19 19 20 20 21 21 21 21 21 21 21 22 23 23 24 26 27 28 29 30 30 27 24 24 25 26 26 25 24 24 24 25 26 27 29 30 31 34 37 37 36 37 37 36 37 37 33 29 28 27 26 25
13 13 14 15 16 17 18 19 20 22 23 23 24 25 26 26 27 27 27 27 26 25 25 26 26 26 26 27 27 28 30 30 28 27 27 27 27 25 24 23 24 24 25 26 27 27 29 30 32 34 36 37 38 38 36 32 28 27 26 24 23 23 22
15 15 16 17 18 18 19 20 21 22 24 26 27 28 29 30 31 32 32 32 31 30 30 30 30 30 30 30 31 31 31 31 30 30 31 31 30 28 25 24 25 26 27 28 28 27 27 29 31 33 35 37 39 38 31 24 22 24 24 24 23 21 19
16 16 17 17 18 19 19 20 21 22 23 25 26 28 29 30 32 33 34 35 34 34 33 33 32 32 32 33 33 34 34 34 33 33 34 34 33 30 29 27 26 26 28 29 30 28 27 28 30 31 34 37 38 33 25 21 23 24 24 23 21 18 15
Wind_Direction
198 193 187 186 185 180 179 180 178 171 162 160 165 174 182 186 182 178 180 183 184 182 179 183 187 189 192 197 204 206 203 201 201 202 204 213 221 218 218 228 234 242 257 250 234 220 184 157 150 149 146 149 144 129 119 109 102 97 88 80 78 84 83
192 192 191 192 189 186 185 189 190 179 167 163 161 162 176 190 194 190 188 188 184 179 178 178 182 186 184 191 203 206 203 199 199 203 208 215 222 224 225 230 234 236 244 236 223 218 194 166 154 150 149 152 144 125 116 110 99 86 75 73 73 73 71
187 191 193 193 190 188 190 192 190 178 172 168 153 136 149 176 188 190 191 193 186 178 181 185 184 183 180 183 193 197 198 197 197 201 206 208 212 219 224 229 232 231 226 211 204 204 200 179 159 154 155 153 142 128 123 117 102 90 77 66 59 59 60
191 195 195 192 188 186 188 190 185 180 183 181 175 152 128 159 175 180 184 188 187 185 188 196 197 191 187 188 189 188 190 193 195 199 203 204 207 212 217 221 227 231 226 212 207 202 200 189 163 154 156 152 141 134 133 131 116 100 82 65 59 62 65
201 205 199 190 184 181 184 192 193 196 203 208 222 232 184 148 163 174 180 184 192 192 190 196 195 190 189 191 191 189 188 192 196 197 202 206 209 212 210 207 210 220 226 222 212 200 203 205 176 158 156 153 145 141 142 143 134 112 81 63 62 67 72
213 216 202 188 183 182 188 197 200 206 219 224 227 221 206 194 187 187 188 191 196 194 184 187 189 187 185 184 185 189 190 192 191 191 197 203 207 210 203 191 191 201 211 213 205 195 196 200 182 163 158 157 150 146 149 155 148 128 96 65 66 76 80
220 218 202 191 187 190 195 201 204 210 231 237 230 221 218 218 222 216 202 202 205 211 212 191 189 189 185 183 181 180 182 182 180 181 186 192 197 200 192 183 182 188 191 193 194 191 189 189 182 169 160 157 156 152 156 166 163 141 119 95 87 94 94
219 209 199 196 195 195 197 202 205 206 215 230 232 229 230 232 233 230 214 211 216 226 227 204 195 194 190 189 186 178 175 174 173 177 178 184 191 189 182 179 180 181 178 178 183 184 187 191 187 178 167 160 160 162 166 172 172 156 131 121 119 121 116
206 200 198 200 198 195 199 208 208 201 201 193 215 229 232 232 235 236 226 217 216 224 224 204 192 193 192 191 187 180 179 173 170 176 177 180 186 184 180 177 176 177 174 171 178 183 189 193 190 187 185 177 166 167 172 179 179 169 154 144 145 142 137
193 197 202 202 197 193 201 214 209 204 207 215 239 242 237 228 227 231 235 229 214 214 220 204 184 188 187 183 178 175 181 179 170 174 180 183 185 183 182 177 173 176 172 167 175 184 187 189 191 194 197 204 183 165 168 178 184 176 166 162 162 157 150
194 203 205 199 195 195 204 216 212 213 224 245 265 275 271 245 224 225 233 234 215 206 216 213 183 181 178 174 175 176 180 179 171 171 175 180 184 183 183 181 174 173 170 165 170 179 184 188 193 197 194 197 198 157 149 161 171 174 175 171 164 162 166
196 209 205 195 194 198 208 218 217 228 241 252 272 284 289 280 235 220 225 231 215 201 210 214 180 172 174 175 178 179 179 176 172 171 169 171 178 180 184 183 174 170 168 165 167 172 181 190 195 195 193 192 197 192 144 141 154 168 177 174 166 162 172
194 205 200 192 195 199 206 223 227 237 246 257 278 288 287 270 219 206 212 221 212 198 203 206 185 170 174 184 187 183 182 181 178 175 168 166 166 166 176 177 169 166 165 164 166 168 176 187 195 199 200 205 207 210 214 189 143 165 175 174 177 178 182
190 196 194 192 199 202 207 225 234 240 249 263 277 274 249 210 188 184 190 202 205 200 201 204 200 190 186 195 198 193 188 189 189 181 172 168 157 150 162 165 162 163 163 164 165 167 172 182 193 203 210 217 221 220 219 220 215 200 190 184 186 196 206
189 190 193 198 204 208 219 231 235 244 257 267 261 216 192 188 185 181 183 193 203 207 210 213 217 220 210 200 201 201 197 196 198 190 178 172 161 150 153 157 161 165 167 169 169 169 173 182 193 205 213 220 226 226 223 224 227 236 231 209 198 203 212
192 189 192 201 209 217 224 230 235 249 258 257 222 186 189 196 194 193 191 192 197 204 212 217 223 230 219 198 200 206 204 202 206 202 190 181 172 164 159 160 165 169 171 175 177 176 178 185 195 206 212 219 228 229 227 227 230 241 254 239 221 215 213
194 190 190 198 209 216 214 214 228 245 250 230 195 187 197 202 201 203 201 199 196 193 198 205 212 215 204 193 198 207 207 206 210 212 207 197 186 180 177 177 177 178 181 185 189 192 195 201 207 213 218 221 225 228 229 228 230 242 258 255 243 232 218
195 192 193 197 196 192 191 196 229 246 234 196 185 188 189 186 189 198 204 205 200 193 191 190 190 190 189 191 196 201 205 206 209 216 216 207 199 194 193 193 190 189 192 200 205 208 211 215 217 219 221 221 222 226 228 229 231 238 247 250 249 241 221
199 195 197 195 183 170 174 186 229 243 215 189 181 172 158 153 151 159 194 207 203 197 193 188 185 184 186 191 194 194 197 199 202 205 204 199 199 200 202 204 203 201 204 213 220 222 225 225 221 217 214 210 214 220 224 227 231 237 240 240 240 239 232
195 196 201 194 181 175 173 174 199 216 199 192 184 166 147 142 135 118 118 184 195 194 191 189 188 188 186 188 190 190 190 191 192 193 190 187 190 195 200 205 208 209 210 216 224 231 236 238 237 232 221 208 205 208 215 222 230 237 240 238 233 233 237
188 199 213 207 194 201 202 184 189 199 194 196 195 192 191 180 172 169 146 132 176 183 186 191 193 191 188 189 191 189 187 187 190 192 191 188 188 191 196 201 206 211 214 220 227 233 237 243 246 244 237 228 218 213 216 225 234 240 243 243 240 236 236
194 203 218 221 209 206 203 191 190 196 199 203 206 213 220 215 210 207 200 208 219 204 196 198 202 202 196 192 195 195 194 194 195 198 199 198 196 196 199 202 206 213 221 229 235 240 244 247 250 250 248 245 239 235 236 241 247 249 248 246 244 240 236
198 197 206 213 206 197 195 193 194 198 203 206 208 214 219 219 219 216 214 222 234 239 237 214 211 215 210 203 202 203 204 207 206 205 207 209 208 207 206 208 212 219 228 239 246 249 250 251 251 250 248 247 246 246 248 251 253 254 253 251 250 246 241
192 188 191 196 193 193 196 196 198 201 201 204 210 213 215 221 225 224 225 230 235 241 247 246 235 229 224 221 219 216 216 220 221 220 219 219 220 220 220 221 225 231 238 245 250 252 254 254 254 253 251 248 246 246 248 250 252 253 254 255 254 253 251
189 185 186 187 189 194 197 199 203 204 200 203 212 216 221 225 225 228 234 239 242 245 248 253 254 250 244 239 235 233 232 232 233 233 233 232 232 232 233 236 239 242 246 249 251 254 256 255 254 253 252 251 249 249 250 250 251 253 253 254 255 256 257
182 183 186 189 192 196 201 204 206 204 201 205 213 220 227 229 227 228 234 240 244 248 250 252 255 255 252 249 246 243 242 245 246 245 244 244 245 245 246 249 251 253 255 255 255 255 255 255 254 252 251 252 253 253 253 253 255 256 256 256 257 258 258
163 173 182 189 194 199 203 204 203 205 210 215 219 222 226 229 229 228 230 235 241 246 249 249 250 252 251 250 249 248 248 249 252 256 258 257 256 256 258 260 262 264 264 263 261 259 256 255 255 256 257 257 257 257 258 258 258 258 259 259 261 262 260
131 146 163 178 187 193 197 197 198 205 214 220 225 228 229 230 231 229 229 233 236 240 244 246 248 250 250 249 248 248 249 249 250 254 260 262 262 263 264 266 268 271 272 270 268 265 263 260 258 259 262 264 266 266 265 264 263 264 264 263 264 263 257
116 123 135 154 171 178 180 182 187 197 206 214 220 226 230 232 234 235 235 236 236 236 238 242 246 249 250 251 249 247 248 249 250 253 256 259 261 262 263 264 267 270 272 272 272 270 268 265 262 260 262 266 268 268 267 266 266 265 264 264 266 264 257
117 120 126 139 153 162 167 171 178 187 199 209 214 218 225 230 234 239 243 244 244 242 241 244 247 249 250 251 249 248 248 248 249 252 254 256 258 258 260 261 264 267 267 269 271 272 270 266 261 257 259 264 268 269 268 268 266 264 261 259 260 259 257
122 128 136 145 153 163 172 179 186 192 202 213 218 219 221 225 232 238 243 246 248 249 248 249 250 251 252 251 250 250 250 250 251 252 254 256 257 255 254 256 260 262 263 266 270 270 269 266 261 257 258 264 269 270 270 271 269 265 259 255 255 252 246
237 221 223 225 225 223 221 221 222 223 226 230 235 237 236 233 234 238 241 244 247 250 251 251 252 252 253 253 253 252 254 256 257 257 259 261 263 262 260 259 262 264 265 268 270 268 267 267 266 265 263 264 266 269 270 270 267 262 256 254 253 249 241
278 275 272 271 270 266 263 260 255 253 253 252 253 255 255 253 249 248 249 249 250 252 253 253 252 252 252 253 254 253 254 257 260 262 265 266 269 272 273 271 269 269 269 271 272 271 269 269 271 273 272 268 270 272 272 269 264 260 256 252 249 248 246
276 273 272 271 271 271 271 270 268 267 267 266 265 264 264 263 261 260 260 259 258 257 257 256 254 252 253 254 254 254 254 255 258 261 265 268 271 275 276 274 272 272 273 274 274 272 271 271 272 274 275 274 274 274 273 271 267 261 254 248 245 243 235
291 286 281 278 275 274 273 272 271 271 270 270 270 269 268 267 266 264 263 263 263 262 261 260 258 256 255 255 256 256 256 257 258 260 260 262 264 267 269 271 272 275 278 279 277 274 271 269 269 270 271 272 271 271 272 269 263 254 245 238 232 223 212
302 298 294 290 288 286 283 281 279 278 276 275 274 273 272 271 270 268 266 265 265 265 264 262 261 260 259 258 258 258 258 258 258 259 260 260 259 260 263 266 271 276 280 282 281 277 272 269 268 268 269 269 269 269 264 252 242 237 230 221 212 207 205
310 307 304 302 299 296 293 291 288 286 284 282 280 278 277 276 275 274 272 270 268 267 267 266 264 263 262 261 260 260 260 259 258 257 259 260 261 261 261 263 268 274 278 281 282 278 274 271 268 268 267 265 263 260 246 229 224 221 210 203 203 206 209
Height
1528 1529 1531 1532 1533 1534 1536 1537 1538 1539 1539 1540 1541 1541 1541 1541 1541 1541 1541 1541 1542 1543 1543 1544 1544 1545 1545 1546 1546 1547 1547 1548 1549 1550 1551 1552 1552 1554 1555 1555 1556 1557 1558 1558 1559 1560 1561 1563 1565 1566 1566 1567 1568 1569 1570 1570 1571 1571 1571 1571 1571 1572 1572
1528 1530 1531 1532 1533 1534 1535 1537 1538 1539 1539 1540 1540 1541 1541 1541 1541 1541 1542 1542 1542 1542 1543 1543 1544 1544 1545 1545 1546 1546 1547 1548 1549 1549 1550 1551 1552 1553 1554 1555 1556 1556 1557 1558 1559 1561 1562 1563 1565 1566 1567 1568 1570 1571 1572 1572 1572 1573 1573 1573 1573 1573 1573
1528 1530 1531 1532 1533 1534 1535 1537 1537 1538 1539 1539 1540 1540 1540 1541 1541 1542 1542 1542 1542 1542 1543 1543 1543 1544 1544 1545 1545 1546 1546 1547 1548 1549 1550 1550 1551 1552 1554 1554 1555 1556 1557 1557 1559 1560 1562 1563 1564 1566 1568 1569 1570 1571 1573 1574 1574 1574 1574 1574 1574 1574 1574
1529 1530 1531 1532 1533 1534 1536 1537 1537 1538 1539 1539 1539 1539 1540 1541 1541 1542 1542 1542 1542 1542 1543 1543 1543 1544 1544 1544 1545 1545 1546 1547 1547 1548 1549 1550 1550 1551 1552 1553 1554 1555 1556 1557 1558 1559 1561 1563 1564 1567 1569 1570 1571 1572 1573 1575 1575 1575 1575 1575 1575 1574 1575
1529 1531 1532 1533 1534 1535 1536 1537 1537 1538 1539 1539 1540 1539 1540 1540 1541 1542 1542 1542 1543 1543 1543 1543 1543 1543 1544 1544 1545 1545 1546 1546 1547 1547 1548 1549 1550 1550 1551 1552 1553 1555 1555 1556 1557 1559 1561 1562 1564 1566 1569 1571 1572 1573 1574 1575 1576 1576 1576 1576 1575 1575 1575
1530 1532 1533 1534 1535 1536 1537 1537 1538 1538 1539 1539 1540 1540 1540 1540 1541 1541 1542 1542 1543 1543 1542 1542 1543 1543 1544 1544 1545 1545 1545 1546 1546 1547 1548 1548 1549 1550 1550 1552 1553 1554 1555 1555 1557 1558 1560 1562 1563 1565 1568 1571 1573 1573 1575 1576 1576 1577 1577 1576 1576 1576 1576
1530 1532 1533 1534 1536 1536 1537 1538 1538 1539 1539 1539 1539 1540 1540 1540 1540 1541 1541 1542 1542 1542 1542 1542 1543 1543 1544 1544 1545 1545 1545 1546 1546 1546 1547 1548 1548 1549 1550 1551 1552 1553 1554 1555 1556 1557 1558 1560 1562 1563 1566 1570 1573 1574 1575 1576 1577 1577 1577 1577 1577 1577 1577
1530 1532 1533 1535 1536 1537 1538 1538 1538 1538 1538 1539 1539 1539 1540 1540 1540 1541 1541 1542 1542 1543 1543 1543 1543 1543 1543 1544 1544 1545 1545 1545 1545 1546 1546 1547 1548 1548 1549 1551 1552 1553 1554 1555 1556 1557 1558 1559 1561 1562 1564 1567 1572 1574 1575 1576 1577 1577 1577 1577 1577 1577 1578
1530 1532 1533 1534 1536 1537 1537 1537 1537 1538 1538 1538 1539 1539 1539 1539 1540 1541 1541 1542 1542 1543 1543 1543 1543 1543 1543 1544 1544 1545 1545 1545 1545 1546 1546 1547 1547 1548 1549 1550 1552 1553 1554 1555 1556 1557 1558 1559 1561 1562 1563 1565 1567 1571 1573 1575 1576 1577 1577 1577 1578 1578 1578
1530 1531 1532 1533 1535 1536 1537 1537 1537 1538 1538 1538 1539 1539 1539 1539 1540 1540 1541 1542 1542 1542 1543 1543 1543 1543 1543 1544 1544 1545 1545 1545 1546 1546 1546 1546 1547 1548 1548 1550 1551 1553 1554 1555 1556 1557 1559 1560 1561 1563 1564 1565 1566 1567 1570 1573 1574 1575 1576 1577 1577 1578 1578
1528 1530 1531 1533 1534 1536 1536 1537 1537 1538 1538 1538 1539 1539 1539 1539 1539 1540 1540 1541 1542 1542 1543 1543 1543 1543 1544 1544 1544 1545 1545 1546 1546 1546 1547 1547 1547 1548 1548 1550 1551 1553 1554 1555 1556 1557 1559 1560 1562 1563 1564 1566 1566 1567 1568 1570 1572 1574 1575 1576 1577 1577 1578
1527 1529 1531 1532 1534 1535 1536 1537 1537 1538 1538 1538 1539 1539 1539 1539 1539 1539 1540 1541 1542 1542 1543 1543 1544 1544 1544 1544 1545 1545 1546 1546 1547 1547 1547 1548 1548 1548 1549 1550 1551 1553 1554 1555 1556 1557 1559 1560 1562 1563 1564 1566 1567 1568 1569 1570 1571 1573 1574 1575 1576 1577 1577
1527 1529 1531 1532 1534 1535 1536 1537 1537 1537 1538 1538 1539 1539 1539 1538 1539 1539 1540 1540 1541 1543 1543 1544 1544 1544 1544 1545 1546 1546 1547 1547 1548 1548 1548 1549 1549 1549 1550 1551 1552 1553 1554 1555 1556 1558 1559 1561 1562 1564 1565 1566 1567 1568 1569 1570 1571 1572 1573 1575 1576 1576 1577
1526 1528 1530 1533 1534 1535 1536 1537 1537 1537 1538 1538 1538 1538 1538 1538 1539 1539 1540 1541 1542 1543 1544 1544 1544 1545 1545 1545 1546 1547 1548 1548 1549 1549 1550 1550 1550 1551 1551 1552 1553 1554 1555 1556 1558 1559 1560 1561 1563 1564 1565 1566 1567 1568 1569 1570 1572 1573 1573 1574 1575 1576 1576
1525 1527 1529 1532 1534 1535 1536 1537 1537 1538 1538 1538 1538 1538 1539 1539 1539 1539 1540 1541 1542 1543 1544 1544 1545 1545 1545 1546 1546 1547 1548 1549 1550 1551 1551 1551 1551 1552 1552 1553 1554 1555 1556 1558 1559 1560 1561 1562 1563 1564 1565 1566 1567 1568 1569 1570 1571 1572 1573 1574 1575 1575 1576
1524 1526 1528 1531 1534 1535 1536 1537 1537 1538 1538 1539 1539 1539 1539 1539 1539 1539 1540 1540 1542 1543 1543 1544 1544 1545 1545 1546 1547 1548 1549 1550 1551 1551 1552 1552 1553 1553 1554 1555 1555 1556 1557 1559 1560 1561 1561 1562 1563 1563 1564 1565 1566 1567 1568 1570 1571 1572 1573 1574 1574 1575 1575
1524 1526 1528 1531 1533 1534 1535 1536 1537 1537 1538 1538 1539 1539 1539 1539 1539 1539 1539 1540 1541 1542 1543 1543 1544 1544 1545 1546 1547 1548 1549 1550 1551 1552 1553 1553 1554 1555 1555 1556 1557 1558 1559 1560 1560 1561 1562 1562 1563 1563 1564 1564 1565 1566 1567 1569 1570 1572 1573 1573 1574 1574 1575
1525 1527 1528 1530 1532 1533 1535 1536 1537 1537 1538 1538 1539 1539 1539 1539 1539 1539 1540 1540 1540 1541 1542 1543 1543 1544 1545 1546 1547 1548 1549 1550 1551 1552 1552 1554 1555 1556 1556 1557 1557 1558 1559 1560 1561 1561 1561 1562 1562 1563 1563 1563 1564 1565 1566 1568 1569 1571 1571 1572 1573 1574 1574
1524 1527 1528 1529 1530 1532 1534 1535 1536 1537 1538 1538 1539 1539 1540 1540 1540 1540 1540 1540 1541 1541 1542 1543 1543 1544 1545 1546 1546 1547 1548 1550 1551 1552 1552 1553 1555 1556 1557 1558 1558 1559 1559 1560 1560 1561 1561 1561 1562 1562 1562 1563 1563 1564 1565 1567 1568 1569 1570 1571 1572 1572 1573
1523 1526 1528 1528 1530 1532 1533 1534 1536 1537 1538 1538 1539 1539 1540 1540 1540 1541 1541 1541 1541 1542 1542 1543 1544 1544 1545 1546 1546 1547 1548 1550 1551 1552 1553 1554 1555 1556 1557 1558 1558 1559 1559 1560 1561 1561 1561 1561 1561 1562 1562 1562 1563 1564 1565 1566 1567 1568 1568 1569 1570 1571 1571
1521 1525 1527 1528 1530 1532 1533 1534 1535 1536 1537 1538 1539 1540 1540 1540 1541 1541 1541 1542 1542 1542 1543 1543 1543 1544 1545 1546 1546 1547 1548 1549 1551 1552 1553 1554 1555 1556 1557 1558 1558 1559 1559 1560 1561 1561 1561 1561 1561 1561 1562 1562 1563 1563 1564 1565 1566 1566 1567 1567 1568 1569 1570
1521 1523 1526 1527 1529 1531 1533 1534 1535 1536 1537 1538 1539 1540 1540 1540 1541 1541 1542 1542 1543 1543 1543 1543 1543 1544 1545 1545 1546 1547 1548 1549 1551 1552 1553 1554 1555 1556 1557 1557 1558 1559 1559 1560 1560 1560 1560 1561 1561 1561 1561 1562 1562 1563 1563 1564 1564 1564 1565 1566 1567 1568 1568
1520 1522 1524 1526 1528 1531 1532 1533 1534 1535 1536 1537 1538 1539 1540 1540 1540 1541 1541 1542 1543 1543 1544 1544 1544 1544 1545 1546 1546 1547 1548 1549 1550 1551 1553 1553 1554 1555 1556 1557 1557 1558 1559 1559 1559 1559 1559 1559 1560 1560 1560 1560 1561 1561 1562 1562 1562 1563 1563 1564 1564 1565 1566
1520 1522 1524 1525 1528 1529 1531 1532 1533 1534 1535 1537 1538 1539 1539 1540 1540 1540 1541 1541 1542 1543 1544 1544 1545 1545 1545 1546 1547 1547 1548 1549 1550 1551 1552 1552 1553 1554 1555 1556 1557 1557 1558 1558 1558 1558 1558 1558 1558 1558 1558 1559 1559 1560 1560 1560 1561 1561 1561 1562 1562 1563 1563
1520 1522 1523 1525 1527 1528 1529 1531 1533 1534 1535 1536 1537 1538 1539 1539 1539 1540 1540 1541 1541 1542 1543 1544 1545 1545 1546 1546 1547 1548 1548 1549 1549 1550 1551 1551 1552 1553 1554 1555 1555 1556 1556 1556 1557 1557 1557 1557 1557 1557 1557 1557 1557 1558 1558 1559 1559 1559 1559 1560 1560 1561 1561
1520 1521 1523 1524 1526 1527 1528 1530 1532 1533 1534 1535 1536 1537 1538 1538 1538 1539 1540 1540 1541 1541 1542 1543 1544 1545 1545 1546 1547 1547 1548 1549 1549 1549 1550 1550 1551 1552 1552 1553 1554 1554 1554 1555 1555 1555 1555 1555 1555 1555 1555 1555 1555 1556 1556 1557 1557 1557 1558 1558 1558 1558 1559
1520 1522 1523 1524 1525 1526 1527 1528 1531 1532 1532 1533 1535 1536 1536 1537 1537 1538 1538 1539 1539 1540 1541 1542 1543 1543 1544 1545 1546 1546 1547 1548 1548 1548 1549 1549 1549 1550 1551 1551 1552 1552 1553 1553 1553 1553 1553 1553 1553 1554 1554 1554 1554 1554 1554 1555 1555 1555 1555 1555 1555 1556 1557
1521 1522 1523 1523 1524 1525 1526 1528 1529 1530 1531 1532 1533 1534 1535 1536 1536 1536 1537 1537 1538 1538 1539 1540 1541 1542 1542 1543 1544 1545 1545 1546 1546 1547 1547 1547 1548 1549 1549 1550 1550 1550 1550 1550 1551 1550 1550 1551 1551 1551 1551 1551 1551 1551 1551 1552 1552 1552 1552 1552 1553 1553 1553
1522 1522 1523 1524 1525 1525 1526 1527 1528 1529 1531 1531 1532 1533 1534 1535 1535 1535 1535 1535 1536 1537 1537 1538 1538 1539 1540 1541 1542 1542 1543 1544 1544 1545 1545 1545 1546 1546 1547 1547 1548 1548 1548 1548 1548 1548 1548 1548 1548 1548 1548 1548 1548 1548 1548 1548 1548 1548 1548 1549 1550 1550 1550
1523 1524 1524 1525 1526 1526 1527 1528 1528 1530 1531 1531 1531 1532 1533 1533 1534 1534 1534 1534 1534 1535 1536 1536 1536 1536 1537 1538 1539 1540 1540 1541 1541 1542 1542 1542 1543 1543 1544 1544 1545 1545 1545 1545 1545 1545 1545 1544 1544 1545 1545 1544 1544 1544 1544 1544 1544 1544 1545 1546 1546 1547 1547
1524 1525 1526 1526 1527 1527 1527 1528 1529 1530 1530 1531 1531 1531 1532 1532 1532 1532 1532 1533 1533 1533 1534 1534 1534 1534 1535 1535 1536 1537 1537 1538 1538 1538 1538 1539 1539 1539 1540 1542 1542 1542 1542 1542 1542 1542 1542 1539 1538 1541 1542 1541 1540 1540 1540 1541 1541 1540 1541 1542 1542 1543 1544
1525 1526 1527 1527 1528 1528 1529 1529 1529 1530 1530 1530 1530 1530 1530 1530 1531 1530 1531 1531 1531 1531 1531 1532 1532 1532 1532 1532 1532 1533 1533 1534 1534 1535 1535 1535 1534 1534 1536 1539 1539 1539 1539 1539 1539 1539 1538 1535 1533 1535 1538 1538 1536 1536 1537 1538 1537 1537 1537 1538 1539 1540 1541
1525 1525 1526 1527 1528 1528 1528 1528 1529 1529 1528 1528 1528 1528 1528 1528 1529 1529 1529 1529 1529 1529 1528 1529 1529 1529 1529 1529 1529 1529 1530 1530 1530 1531 1532 1532 1531 1531 1532 1534 1535 1535 1535 1535 1534 1534 1534 1533 1530 1530 1532 1533 1532 1533 1534 1534 1533 1533 1534 1535 1536 1537 1538
1524 1524 1525 1526 1526 1526 1526 1526 1526 1526 1526 1526 1526 1526 1526 1526 1526 1527 1527 1527 1527 1527 1527 1527 1527 1527 1527 1527 1527 1527 1526 1527 1527 1528 1528 1528 1528 1528 1529 1530 1531 1532 1532 1531 1531 1530 1530 1530 1529 1527 1528 1528 1528 1529 1530 1530 1530 1531 1531 1532 1532 1534 1535
1523 1523 1524 1524 1524 1524 1524 1524 1524 1524 1524 1524 1524 1524 1524 1524 1524 1524 1525 1525 1525 1525 1525 1525 1525 1525 1526 1526 1525 1525 1524 1524 1525 1524 1523 1523 1523 1524 1525 1527 1527 1528 1528 1528 1528 1527 1527 1527 1527 1525 1525 1525 1524 1525 1526 1526 1527 1527 1528 1528 1529 1530 1531
1521 1521 1522 1522 1522 1522 1522 1522 1521 1521 1521 1521 1521 1521 1521 1521 1521 1521 1521 1521 1521 1522 1522 1522 1522 1523 1523 1523 1523 1522 1521 1521 1521 1521 1520 1519 1520 1520 1521 1522 1523 1524 1524 1524 1524 1524 1524 1524 1523 1523 1522 1521 1520 1521 1521 1522 1522 1523 1524 1525 1526 1528 1529
1520 1520 1520 1520 1520 1519 1519 1519 1519 1519 1519 1519 1518 1518 1518 1517 1517 1516 1516 1517 1517 1518 1518 1518 1518 1519 1519 1519 1519 1518 1518 1517 1517 1517 1516 1516 1516 1516 1517 1517 1518 1519 1520 1519 1520 1520 1520 1520 1520 1519 1519 1518 1516 1516 1517 1518 1519 1520 1522 1523 1524 1526 1528